Location: Bron Breck
(40.6655°N, 111.8083°W)
Time: 21:38:22
(UTC+00:00)

N. Korean satellite - Pass Details

Date: 28 February 2021
Orbit: 452 x 499 km, 97.2° (Epoch: 15 April)

Event Time Altitude Azimuth Distance (km) Brightness Sun altitude
Rises 13:04:14 0° 8° (N) 2,512 10.3 -11.8°
Reaches altitude 10° 13:06:17 10° 5° (N) 1,639 9.3 -11.4°
Maximum altitude 13:09:46 62° 284° (WNW) 541 6.5 -10.7°
Drops below altitude 10° 13:13:16 10° 203° (SSW) 1,652 9.0 -10.0°
Sets 13:15:21 0° 200° (SSW) 2,535 10.0 -9.6°
